Change the Weather History Date:

Sunday, June 16, 2013

  Actual Average Record
Temperature  
Mean Temperature 36 °F -  
Max Temperature 42 °F 40 °F 46 °F (1997)
Min Temperature 29 °F 28 °F 6 °F (2005)
Degree Days  
Heating Degree Days 30    
Moisture  
Dew Point 26 °F    
Average Humidity 63    
Maximum Humidity 81    
Minimum Humidity 40    
Precipitation  
Precipitation 0.00 in 0.02 in - ()
Sea Level Pressure  
Sea Level Pressure 29.20 in    
Wind  
Wind Speed 20 mph ()    
Max Wind Speed 36 mph    
Max Gust Speed 54 mph    
Visibility 9.6 miles    
Events      
Averages and records for this station are not official NWS values.
T = Trace of Precipitation, MM = Missing Value Source: Averaged Metar Reports

Daily Weather History Graph

Daily Weather History Graph

Search for Another Location

Airport or City:

Trip Planner

Search our weather history database for the weather conditions in past years. The results will help you decide how hot, cold, wet, or windy it might be!

Date:

Astronomy

Jun. 16, 2013 Rise Set
Actual Time 9:43 AM ART 5:32 PM ART
Civil Twilight 9:02 AM ART 6:13 PM ART
Nautical Twilight 8:19 AM ART 6:56 PM ART
Astronomical Twilight 7:38 AM ART 7:37 PM ART
Moon 1:24 PM ART (6/16) 1:07 AM ART (6/16)
Length of Visible Light 9h 10m
Length of Day
7h 49m
Waxing Crescent, 49% of the Moon is Illuminated
Jun 16
Waxing Crescent
Jun 16
First Quarter
Jun 23
Full
Jun 30
Last Quarter
Jul 8
New

Hourly Weather History & Observations

Time (ART) Temp. Windchill Dew Point Humidity Pressure Visibility Wind Dir Wind Speed Gust Speed Precip Events Conditions
12:00 AM 30.2 °F 21.3 °F 23.0 °F 75% 29.42 in - NW 10.4 mph - N/A   Clear
1:00 AM 32.0 °F 23.0 °F 21.2 °F 64% 29.39 in - NW 11.5 mph - N/A   Clear
2:00 AM 33.8 °F 23.9 °F 21.2 °F 60% 29.36 in 6.2 mi NW 15.0 mph - N/A   Scattered Clouds
3:00 AM 34 °F - 21 °F 47% 29.31 in 19 mi NW 23.0 mph - -   Clear
3:00 AM 33.8 °F 21.6 °F 21.2 °F 60% 29.30 in - NW 23.0 mph - N/A   Clear
4:00 AM 35.6 °F 23.4 °F 23.0 °F 60% 29.24 in - NW 25.3 mph 34.5 mph N/A   Clear
5:00 AM 35.6 °F 25.5 °F 17.6 °F 48% 29.21 in - NNW 17.3 mph 34.5 mph N/A   Clear
6:00 AM 37.4 °F 25.4 °F 21.2 °F 52% 29.15 in - NW 27.6 mph 41.4 mph N/A   Clear
7:00 AM 37.4 °F 25.6 °F 17.6 °F 45% 29.15 in 6.2 mi NW 26.5 mph 35.7 mph N/A   Partly Cloudy
8:00 AM 37.4 °F 24.0 °F 21.2 °F 52% 29.12 in 6.2 mi NW 35.7 mph 44.9 mph N/A   Scattered Clouds
9:00 AM 38 °F - 31 °F 68% 29.10 in 19 mi NW 33.4 mph - -   Partly Cloudy
9:00 AM 37.4 °F 24.4 °F 30.2 °F 75% 29.09 in 6.2 mi NW 33.4 mph 42.6 mph N/A   Scattered Clouds
10:00 AM 39.2 °F 28.0 °F 32.0 °F 75% 29.12 in 6.2 mi NW 26.5 mph 34.5 mph N/A   Scattered Clouds
11:00 AM 39.2 °F 27.6 °F 33.8 °F 81% 29.12 in 6.2 mi West 28.8 mph 42.6 mph N/A   Partly Cloudy
12:00 PM 41.0 °F 31.1 °F 32.0 °F 70% 29.12 in 6.2 mi West 23.0 mph 34.5 mph N/A   Partly Cloudy
1:00 PM 41.0 °F 29.7 °F 26.6 °F 57% 29.09 in - West 31.1 mph 34.5 mph N/A   Clear
2:00 PM 41.0 °F 30.0 °F 28.4 °F 61% 29.12 in - West 28.8 mph 38.0 mph N/A   Clear
3:00 PM 42 °F - 26 °F 40% 29.11 in 19 mi West 33.4 mph - -   Clear
3:00 PM 42.8 °F 31.8 °F 24.8 °F 49% 29.09 in - West 33.4 mph 44.9 mph N/A   Clear
4:00 PM 41.0 °F 29.7 °F 28.4 °F 61% 29.12 in - WSW 31.1 mph 46.0 mph N/A   Clear
5:00 PM 39.2 °F 26.5 °F 26.6 °F 61% 29.15 in 6.2 mi WSW 35.7 mph 54.1 mph N/A   Scattered Clouds
6:00 PM 37.4 °F 25.4 °F 26.6 °F 65% 29.21 in 6.2 mi WSW 27.6 mph 46.0 mph N/A   Partly Cloudy
7:00 PM 35.6 °F 24.8 °F 24.8 °F 65% 29.24 in - WSW 19.6 mph - N/A   Clear
8:00 PM 35.6 °F 24.5 °F 26.6 °F 70% 29.24 in - WNW 20.7 mph - N/A   Clear
9:00 PM 36 °F - 27 °F 59% 29.26 in 19 mi West 21.9 mph - -   Scattered Clouds
9:00 PM 35.6 °F 24.2 °F 28.4 °F 75% 29.24 in 6.2 mi West 21.9 mph - N/A   Partly Cloudy
10:00 PM 33.8 °F 24.3 °F 28.4 °F 81% 29.27 in - WNW 13.8 mph - N/A   Clear
11:00 PM 33.8 °F 24.8 °F 28.4 °F 81% 29.27 in 6.2 mi West 12.7 mph - N/A   Partly Cloudy